sat.trackr.live / text

‹ back to catalog

STARLINK-2395

NORAD 47814 · 2021-018AD

PAYLOAD ACTIVE UNKNOWN

§ Identity

Operator
Country
US
Launch date
2021-03-11
Launch site
AFETR
Launch vehicle
Mass (kg)
RCS (m²)

Purposes: comms

External: N2YO · Heavens-Above · Gunter

§ Orbital elements

Epoch: 2026-09-20T01:51:39.343680Z

Period
93.80 min
Inclination
53.1574°
Eccentricity
0.0000119
Mean motion
15.35143328 rev/d
Perigee alt
460.4 km
Apogee alt
460.6 km
Semi-major
6,838.6 km
B*
9.8530e-4
RAAN
57.5487°
Arg perigee
175.1646°
Mean anomaly
184.9358°
Rev number
30,658

§ Raw data

STARLINK-23951 47814U 21018AD  26263.07753870  .00033862  00000+0  98530-3 0  99912 47814  53.1574  57.5487 0000119 175.1646 184.9358 15.35143328306583

JSON: /api/v1/satellites/47814 · /tle

For live sub-satellite position, see the globe view (requires WebGL).

§ Visibility from observer

Set your observer location to see the next 7 days of passes ≥ 10°. The values pass through the URL so the page stays shareable.

No JS? Fill the form by hand. The geolocation button needs JavaScript.